Regional Weather Roundup
Issued by NWS

Home | Current Version | Previous Version | Text Only | Print | Product List | Glossary Off
Versions: 1 2 3 4 5 6 7 8 9 10 11 12 13 14 15 16 17 18 19 20 21 22 23 24 25 26 27 28 29 30 31 32 33 34 35 36 37 38 39 40 41 42 43 44 45 46 47 48 49 50

000
ASUS43 KLOT 242009
RWRIL

ILLINOIS REGIONAL WEATHER ROUNDUP
NATIONAL WEATHER SERVICE CHICAGO/ROMEOVILLE IL
300 PM CDT SAT JUN 24 2017

NOTE: "FAIR" INDICATES FEW OR NO CLOUDS BELOW 12,000 FEET WITH NO
SIGNIFICANT WEATHER AND/OR OBSTRUCTIONS TO VISIBILITY.

* THESE STATIONS ARE NOT UNDER NWS QUALITY CONTROL. THEY ALSO MAY NOT
  REPORT WEATHER SUCH AS PRECIPITATION OR FOG.

ILZ001-002-007-009-015-016-024-242100-
NORTHWEST ILLINOIS

CITY           SKY/WX    TMP DP  RH WIND       PRES   REMARKS
MOLINE         SUNNY     74  41  30 NW17G28   30.08S
STERLING*      SUNNY     72  46  39 W24G31    30.05S
SAVANNA*       MOSUNNY   71  43  36 W17G30    30.06F
$$

ILZ003-004-008-010-011-017-018-242100-
NORTH CENTRAL ILLINOIS

CITY           SKY/WX    TMP DP  RH WIND       PRES   REMARKS
ROCKFORD       PTSUNNY   72  46  39 W18G26    30.03S
FREEPORT*      MOSUNNY   69  43  39 W20G30    30.06R
ROCHELLE*      PTSUNNY   70  48  44 W21G28    30.04S
DE KALB*       MOSUNNY   71  47  41 W17G25    30.03S
PERU*          SUNNY     71  44  38 W17G28    30.06S
$$

ILZ005-006-012>014-019>023-242100-
NORTHEAST ILLINOIS

CITY           SKY/WX    TMP DP  RH WIND       PRES   REMARKS
CHICAGO-OHARE  MOSUNNY   75  44  33 W18G28    29.99S
CHICAGO-MIDWAY PTSUNNY   74  48  39 W18G26    29.99S
AURORA         PTSUNNY   73  48  41 W25G31    30.02S
LANSING*       PTSUNNY   73  47  39 W15G21    30.00S
JOLIET*        PTSUNNY   76  48  36 W13G20    30.02S
WAUKEGAN       MOSUNNY   72  46  39 W12G22    29.97S
DUPAGE AIRPORT PTSUNNY   71  48  43 W23G29    30.01R
WHEELING       SUNNY     73  46  38 W15G25    30.00S
MORRIS*        MOSUNNY   74  44  34 W22G33    30.02S
ROMEOVILLE*    MOSUNNY   75  41  29 NW22G30   30.01F
NORTHERLY ISL    N/A     72  41  32 SW15        N/A
$$

LMZ740>746-242100-
SOUTHERN LAKE MICHIGAN

STATION/POSITION SKY/WX   TEMP    WIND        PRES    VSBY  WAVE
                          AIR SEA DIR/SP/G                  HT/PER
                          (F)     (DEG/KT/KT) (MB)    (MI)  (FT/S)
SOUTHERN BUOY              65 63  300/ 10/ 12 1014.8S         1/ 3
WILMETTE HARBOR            69 65  280/ 16/ 19   N/A           2/ 3
HARRISON CRIB              71     280/ 19/ 22   N/A
BURNHAM HARBOR             72                   N/A
CALUMET HARBOR             74     260/  6/ 16 1015.1R
BURNS HARBOR               69     300/ 11/ 13 1015.9R
MICHIGAN CITY              69     300/  8/ 10   N/A
MICHIGAN CITY 6N           68 68  330/  8/ 10   N/A           2/ 5
ST. JOSEPH                 67 69  300/  8/ 10 1015.5          2/ 5
$$

ILZ025>027-034>036-040-047-049-050-058-095>099-242100-
WEST-CENTRAL ILLINOIS

CITY           SKY/WX    TMP DP  RH WIND       PRES   REMARKS
QUINCY         SUNNY     75  44  33 NW17      30.13S
GALESBURG*     SUNNY     72  44  36 NW12G23   30.11S
MACOMB*        SUNNY     74  43  32 NW20G29   30.13S
JACKSONVILLE*  SUNNY     75  46  35 W16G23    30.11S
PITTSFIELD*    SUNNY     76  46  34 NW15G21   30.13F
$$

ILZ028>032-037-038-041>044-048-051>054-059>061-242100-
CENTRAL ILLINOIS

CITY           SKY/WX    TMP DP  RH WIND       PRES   REMARKS
PONTIAC        MOSUNNY   74  47  38 W23G30    30.06S
BLOOMINGTON    MOSUNNY   74  46  36 W20G30    30.08S
DECATUR        MOSUNNY   75  48  38 NW13G22   30.08F
PEORIA         SUNNY     74  43  32 NW14G24   30.09R
LACON*         SUNNY     73  46  38 NW16G22   30.06S
LINCOLN*       SUNNY     76  46  35 W8G20     30.08S
SPRINGFIELD    SUNNY     78  45  30 NW16G31   30.09F
TAYLORVILLE    SUNNY     75  49  39 W15       30.10S
$$

ILZ033-039-045-046-055>057-062-063-242100-
EAST-CENTRAL ILLINOIS

CITY           SKY/WX    TMP DP  RH WIND       PRES   REMARKS
CHAMPAIGN      SUNNY     76  47  35 NW17G28   30.07S
RANTOUL*       SUNNY     76  49  37 NW16G24   30.07S
MATTOON        PTSUNNY   75  51  43 W16       30.08S
PARIS*         MOSUNNY   74  55  51 W16       30.07S
$$

ILZ079-100>102-242100-
SOUTHWEST ILLINOIS

CITY           SKY/WX    TMP DP  RH WIND       PRES   REMARKS
ALTON          MOSUNNY   75  54  46 NW14G22   30.12F
BELLEVILLE     SUNNY     78  49  36 NW9G24    30.12S
CAHOKIA*       SUNNY     80  43  26 W12G20    30.11F
SPARTA*        MOSUNNY   77  46  32 NW12G20   30.13S
$$

ILZ064>066-069>071-074>076-080>082-084>086-088>090-092>094-242100-
SOUTH-CENTRAL ILLINOIS

CITY           SKY/WX    TMP DP  RH WIND       PRES   REMARKS
CARBONDALE     MOSUNNY   77  48  35 NW10      30.12R
CAIRO*         MOSUNNY   78  57  49 NW8       30.11S
EFFINGHAM*     MOSUNNY   76  51  40 NW14G20   30.11S
MARION         PTSUNNY   77  50  38 NW9       30.13R
MT. VERNON     PTSUNNY   75  51  43 VRB6      30.11S
CENTRALIA*     CLOUDY    78  53  42 N16G23    30.10S
SALEM*         CLOUDY    77  50  39 W12G22    30.11S
METROPOLIS*    MOSUNNY   79  58  49 W8G17     30.11S HX  80
$$

ILZ067-068-072-073-078-083-087-091-242100-
SOUTHEAST ILLINOIS

CITY           SKY/WX    TMP DP  RH WIND       PRES   REMARKS
LAWRENCEVILLE  MOSUNNY   77  52  41 W17G26    30.08R
FLORA*         MOSUNNY  N/A N/A N/A W16G22    30.10S
FAIRFIELD*     CLOUDY    76  51  40 NW6       30.09R
HARRISBURG*    SUNNY     79  54  42 W16       30.11R
ROBINSON*      MOSUNNY   76  55  47 W13G21    30.09R
CARMI*         CLOUDY    77  54  45 NW13G20   30.09R
$$

ABBREVIATIONS USED IN REMARKS
   TC - TEMPERATURE IN CELSIUS
  WCI - WIND CHILL INDEX
   HX - HEAT INDEX
  VSB - VISIBILITY
$$




USA.gov is the U.S. government's official web portal to all federal, state and local government web resources and services.